Binghamton, NY

8:24 PM EST on November 22, 2019 (GMT -0500)
Binghamton Regional-Link

Weather History for KBGM - October, 2019

Change the Weather History Date:

Saturday, October 12, 2019

  Actual Average Record
Temperature  
Mean Temperature 48 °F 50 °F  
Max Temperature 53 °F 58 °F 82 °F (1954)
Min Temperature 42 °F 41 °F 27 °F (1987)
Degree Days  
Heating Degree Days 17 15  
Month to date heating degree days 151 162  
Since 1 July heating degree days 324 419  
Cooling Degree Days 0 0  
Month to date cooling degree days 5 0  
Year to date cooling degree days 389 379  
Moisture  
Dew Point 43 °F    
Average Humidity 74    
Maximum Humidity 93    
Minimum Humidity 54    
Precipitation  
Precipitation 0.01 in 0.11 in 0.53 in (2005)
Month to date precipitation 2.95 1.35  
Year to date precipitation 33.61 31.19  
Snow  
Snow 0.00 in 0.00 in T in (2012)
Month to date snowfall 0.0 0.1  
Since 1 July snowfall 0.0 0.1  
Since 1 September snowfall 0.0 0.1  
Snow Depth 0.00 in    
Sea Level Pressure  
Sea Level Pressure 30.00 in    
Wind  
Wind Speed 5 mph (West)    
Max Wind Speed 12 mph    
Max Gust Speed 14 mph    
Visibility 9 miles    
Events Rain    
T = Trace of Precipitation, MM = Missing Value Source: NWS Daily Summary

Daily Weather History Graph

Daily Weather History Graph

Search for Another Location

Airport or City:

Astronomy

Oct. 12, 2019 Rise Set
Actual Time 7:12 AM EDT 6:27 PM EDT
Civil Twilight 6:44 AM EDT 6:55 PM EDT
Nautical Twilight 6:12 AM EDT 7:27 PM EDT
Astronomical Twilight 5:39 AM EDT 8:00 PM EDT
Moon 6:24 PM EDT (10/12) 5:45 AM EDT (10/12)
Length of Visible Light 12h 10m
Length of Day
11h 14m
Waxing Gibbous, 99% of the Moon is Illuminated
Oct 12
Waxing Gibbous
Oct 13
Full
Oct 21
Last Quarter
Oct 27
New
Nov 4
First Quarter

Hourly Weather History & Observations

Time (EDT) Temp. Windchill Dew Point Humidity Pressure Visibility Wind Dir Wind Speed Gust Speed Precip Events Conditions
12:53 AM 48.9 °F - 32.0 °F 52% 30.06 in 10.0 mi ESE 4.6 mph - N/A   Clear
1:53 AM 46.9 °F - 33.1 °F 59% 30.01 in 10.0 mi East 8.1 mph - N/A   Clear
2:53 AM 48.0 °F - 33.1 °F 56% 30.01 in 10.0 mi ESE 3.5 mph - N/A   Clear
3:53 AM 44.1 °F 41.5 °F 34.0 °F 68% 30.00 in 10.0 mi SSE 4.6 mph - N/A   Clear
4:53 AM 45.0 °F - 35.1 °F 68% 29.98 in 10.0 mi Calm Calm - N/A   Clear
5:53 AM 44.1 °F - 36.0 °F 73% 29.99 in 10.0 mi Calm Calm - N/A   Clear
6:53 AM 43.0 °F 41.3 °F 36.0 °F 76% 29.99 in 10.0 mi SE 3.5 mph - N/A   Clear
7:53 AM 46.0 °F 44.8 °F 39.0 °F 76% 29.99 in 10.0 mi South 3.5 mph - N/A   Clear
8:53 AM 46.9 °F - 39.9 °F 77% 29.99 in 10.0 mi South 3.5 mph - N/A   Clear
9:53 AM 51.1 °F - 41.0 °F 68% 29.99 in 10.0 mi South 5.8 mph - N/A   Mostly Cloudy
10:53 AM 51.1 °F - 42.1 °F 71% 29.99 in 8.0 mi SSW 6.9 mph - 0.00 in Rain Light Rain
11:03 AM 50.0 °F - 43.0 °F 77% 29.98 in 2.5 mi SSW 5.8 mph - 0.00 in Rain Light Rain
11:18 AM 48.9 °F - 44.1 °F 83% 29.97 in 10.0 mi South 5.8 mph - 0.00 in   Overcast
11:53 AM 50.0 °F - 45.0 °F 83% 29.98 in 10.0 mi South 4.6 mph - 0.00 in Rain Light Rain
12:53 PM 51.1 °F - 46.0 °F 83% 29.98 in 10.0 mi South 3.5 mph - 0.01 in Rain Light Rain
1:50 PM 51.8 °F - 46.4 °F 82% 29.96 in 10.0 mi West 4.6 mph - 0.00 in   Overcast
1:53 PM 52.0 °F - 46.9 °F 83% 29.97 in 10.0 mi West 4.6 mph - 0.00 in   Overcast
2:00 PM 52.0 °F - 46.0 °F 80% 29.96 in 10.0 mi WSW 4.6 mph - N/A   Overcast
2:53 PM 51.1 °F - 46.9 °F 86% 29.98 in 10.0 mi SW 3.5 mph - 0.00 in   Overcast
3:53 PM 52.0 °F - 46.9 °F 83% 29.99 in 10.0 mi WSW 5.8 mph - N/A   Overcast
4:53 PM 53.1 °F - 46.9 °F 80% 29.98 in 10.0 mi West 5.8 mph - N/A   Overcast
5:46 PM 51.1 °F - 48.0 °F 89% 29.98 in 6.0 mi West 5.8 mph - N/A   Overcast
5:53 PM 51.1 °F - 48.9 °F 92% 30.00 in 5.0 mi WNW 5.8 mph - N/A   Overcast
6:05 PM 51.1 °F - 48.9 °F 92% 29.98 in 9.0 mi NW 3.5 mph - N/A   Overcast
6:12 PM 51.1 °F - 48.9 °F 92% 29.99 in 10.0 mi WNW 3.5 mph - N/A   Overcast
6:46 PM 51.1 °F - 48.9 °F 92% 29.99 in 10.0 mi WNW 4.6 mph - N/A   Overcast
6:53 PM 51.1 °F - 48.9 °F 92% 30.01 in 10.0 mi NW 4.6 mph - N/A   Overcast
7:21 PM 50.0 °F - 48.9 °F 96% 30.00 in 6.0 mi NNW 9.2 mph - 0.00 in   Overcast
7:53 PM 50.0 °F - 48.0 °F 93% 30.03 in 10.0 mi North 10.4 mph - 0.00 in   Overcast
8:05 PM 48.9 °F - 48.0 °F 97% 30.01 in 10.0 mi NNW 10.4 mph - N/A   Overcast
8:16 PM 48.9 °F - 46.9 °F 93% 30.01 in 10.0 mi North 8.1 mph - N/A   Overcast
9:09 PM 48.0 °F - 46.0 °F 93% 30.02 in 10.0 mi North 3.5 mph - N/A   Mostly Cloudy
9:53 PM 48.0 °F - 46.9 °F 96% 30.05 in 10.0 mi North 3.5 mph - N/A   Overcast
10:53 PM 46.0 °F 44.8 °F 44.1 °F 93% 30.06 in 10.0 mi North 3.5 mph - N/A   Mostly Cloudy
11:04 PM 46.0 °F 44.8 °F 45.0 °F 96% 30.04 in 10.0 mi North 3.5 mph - N/A   Mostly Cloudy
11:53 PM 46.0 °F 42.5 °F 43.0 °F 89% 30.06 in 10.0 mi North 6.9 mph - N/A   Overcast